This is the latest recevied weather packets stored in our database for station/object DG1ROH. If no packets are shown the sender has not sent any weather packets the latest 10 day(s).
| Time | Temp. | Humidity | Pressure | Rain* | Wind** | Luminosity | Snow |
|---|---|---|---|---|---|---|---|
| 1777654086 | 22.22° C | 34% | 1024.6 hPa | 0 mm | - | 33 W/m² | - |
| 1777653964 | 22.22° C | 35% | 1024.7 hPa | 0 mm | - | 32 W/m² | - |
| 1777653844 | 22.22° C | 35% | 1024.7 hPa | 0 mm | - | 37 W/m² | - |
| 1777653724 | 22.22° C | 41% | 1024.7 hPa | 0 mm | - | 37 W/m² | - |
| 1777653604 | 22.22° C | 40% | 1024.8 hPa | 0 mm | - | 44 W/m² | - |
| 1777653484 | 22.78° C | 38% | 1024.7 hPa | 0 mm | - | 46 W/m² | - |
| 1777653363 | 22.78° C | 35% | 1024.8 hPa | 0 mm | - | 37 W/m² | - |
| 1777653244 | 22.78° C | 37% | 1024.8 hPa | 0 mm | - | 44 W/m² | - |
| 1777653124 | 22.78° C | 37% | 1024.8 hPa | 0 mm | - | 123 W/m² | - |
| 1777653003 | 22.78° C | 34% | 1024.8 hPa | 0 mm | - | 107 W/m² | - |
| 1777652882 | 22.78° C | 36% | 1024.9 hPa | 0 mm | - | 102 W/m² | - |
| 1777652762 | 22.78° C | 35% | 1024.9 hPa | 0 mm | - | 98 W/m² | - |
| 1777652643 | 22.78° C | 36% | 1024.9 hPa | 0 mm | - | 60 W/m² | - |
| 1777652522 | 22.78° C | 35% | 1024.9 hPa | 0 mm | - | 54 W/m² | - |
| 1777652403 | 22.78° C | 34% | 1024.9 hPa | 0 mm | - | 46 W/m² | - |
| 1777652282 | 22.78° C | 35% | 1025 hPa | 0 mm | - | 47 W/m² | - |
| 1777652163 | 23.33° C | 34% | 1024.9 hPa | 0 mm | - | 76 W/m² | - |
| 1777652043 | 23.33° C | 36% | 1025 hPa | 0 mm | - | 156 W/m² | - |
| 1777651922 | 23.33° C | 34% | 1025.1 hPa | 0 mm | - | 130 W/m² | - |
| 1777651802 | 22.78° C | 35% | 1025 hPa | 0 mm | - | 121 W/m² | - |
| 1777651683 | 22.78° C | 35% | 1025.1 hPa | 0 mm | - | 234 W/m² | - |
| 1777651563 | 22.78° C | 37% | 1025.2 hPa | 0 mm | - | 167 W/m² | - |
| 1777651442 | 22.78° C | 34% | 1025.2 hPa | 0 mm | - | 227 W/m² | - |
| 1777651322 | 22.78° C | 35% | 1025.2 hPa | 0 mm | - | 104 W/m² | - |
| 1777651203 | 22.78° C | 36% | 1025.2 hPa | 0 mm | - | 83 W/m² | - |
* Rain latest hour (hover to see other rain measurements)
** Current wind speed in m/s (hover to see current wind gust speed)